Location: Cronhütte
(48.9135°N, 9.6869°E)
Time: 15:50:03
(UTC+00:00)

FORMOSAT 3E - Pass Details

Date: 08 May 2025
Orbit: 742 x 834 km, 72.0° (Epoch: 13 May)

Event Time Altitude Azimuth Distance (km) Brightness Sun altitude
Rises 21:10:46 0° 336° (NNW) 3,201 12.9 -18.0°
Reaches altitude 10° 21:13:14 10° 344° (NNW) 2,281 11.6 -18.2°
Maximum altitude 21:18:10 43° 56° (NE) 1,057 8.7 -18.6°
Enters shadow 21:20:33 27° 110° (ESE) 1,444 9.0 -18.8°
